Wind_Speed
17 17 16 14 12 10 9 8 8 9 10 12 15 18 21 22 24 26 27 28 29 31 32 32 32 33 31 30 31 32 31 30 30 29 28 28 27 26 26 25 25 26 26
19 18 17 16 14 12 10 8 8 7 8 8 11 13 17 20 21 23 24 26 27 29 30 29 29 30 31 30 29 29 29 29 29 29 29 28 28 28 27 27 26 26 26
21 19 18 17 16 15 12 9 8 7 7 7 7 9 12 15 18 19 21 23 24 25 27 28 28 28 28 28 27 28 28 27 27 28 28 28 28 28 27 26 26 26 26
22 21 20 19 17 15 14 11 9 8 6 5 4 5 7 10 13 15 18 20 22 23 25 26 27 26 26 26 26 26 26 27 27 27 28 27 27 26 26 26 26 25 24
24 23 22 20 19 17 15 14 11 9 8 6 4 3 4 6 9 12 14 16 19 20 22 24 25 25 25 25 26 26 26 26 26 26 27 27 26 25 25 25 25 24 23
25 25 24 23 21 19 17 16 14 11 9 8 6 5 4 4 6 9 11 14 16 18 19 21 22 23 23 23 24 24 24 23 23 24 24 25 24 24 24 23 22 21 21
26 26 25 24 22 21 19 18 16 14 12 10 7 6 4 3 4 6 8 9 11 13 15 18 19 21 21 20 21 22 21 21 21 20 20 20 19 20 20 19 19 18 18
26 26 26 26 24 23 21 19 18 17 15 13 11 8 5 4 0 2 4 6 7 10 11 13 15 18 18 18 19 18 18 18 18 17 17 18 17 17 17 17 16 16 15
27 27 27 27 26 25 23 21 19 18 17 15 13 11 8 6 3 2 2 5 6 8 9 10 12 14 16 16 16 16 16 17 16 16 16 16 14 14 13 13 12 11 11
27 27 27 27 27 25 24 23 21 20 18 17 15 12 10 8 6 3 4 5 6 6 8 9 10 11 13 13 14 15 15 15 14 13 13 13 12 11 10 10 9 9 9
26 26 27 27 27 26 24 23 22 21 20 18 17 14 12 10 8 6 5 5 5 6 7 7 8 9 11 11 12 13 13 13 13 12 11 10 9 8 8 7 7 7 8
26 26 26 26 26 26 25 23 23 22 21 20 19 16 14 12 10 8 7 6 5 5 6 7 7 8 9 10 10 10 11 11 10 10 9 9 8 7 6 6 6 6 6
25 25 25 25 25 25 25 24 23 22 22 21 20 18 16 14 12 10 8 6 6 5 5 6 7 7 7 8 9 9 9 8 8 8 8 7 7 6 6 5 5 5 5
24 24 24 24 25 25 25 24 23 22 22 21 20 19 17 16 14 12 10 8 6 6 5 5 6 7 7 9 9 9 8 8 7 7 6 6 6 6 6 5 5 5 5
23 23 23 23 24 24 24 23 23 23 22 21 20 19 18 16 15 13 11 10 8 7 6 6 6 6 7 7 8 8 8 7 7 7 6 6 6 6 5 5 4 4 4
21 22 22 23 22 22 22 22 22 22 22 21 20 19 18 17 16 14 13 11 10 8 7 7 6 6 6 7 7 7 7 7 6 6 5 5 4 4 4 3 3 3 3
19 19 20 21 21 21 20 20 20 20 20 20 19 18 17 16 15 14 13 12 10 9 8 8 7 7 7 6 6 7 6 6 5 5 4 4 4 3 3 2 2 2 2
17 17 18 19 19 19 19 19 19 19 19 19 18 17 17 16 15 14 13 12 11 10 9 8 7 7 7 6 6 6 5 5 5 4 4 4 4 3 3 2 2 2 1
15 16 16 16 17 17 17 17 17 17 17 17 17 16 16 15 15 14 13 12 11 10 9 8 8 7 7 6 5 5 5 5 4 4 4 4 3 3 2 2 2 1 1
14 14 14 14 15 15 15 15 15 14 14 15 14 14 14 14 13 13 12 11 10 10 9 8 7 7 6 5 5 4 4 4 4 4 4 3 3 2 2 2 1 1 2
13 13 13 13 13 13 13 13 13 13 12 12 12 12 12 12 11 11 10 10 9 8 8 7 6 6 5 4 4 3 3 3 3 3 3 3 2 2 2 2 2 2 3
13 13 13 13 12 12 12 12 11 11 11 11 10 10 10 9 9 9 8 7 7 6 6 5 5 4 4 3 3 2 2 2 2 2 2 2 3 3 3 3 3 4 4
14 14 14 13 13 12 12 11 11 10 10 10 9 9 8 8 7 7 6 6 5 4 4 3 3 2 1 1 1 1 1 1 1 2 3 3 3 4 4 4 5 5 6
16 16 15 15 14 14 13 12 12 11 10 10 9 8 8 7 7 6 5 5 4 3 3 2 2 1 1 1 1 2 2 3 3 4 4 4 5 5 5 6 7 7 8
19 18 17 17 16 16 15 15 14 13 12 11 11 10 9 8 8 7 6 6 5 4 4 3 3 3 3 3 4 4 5 5 5 6 6 7 7 7 8 8 9 9 9
22 21 20 19 19 18 17 17 17 16 15 14 13 12 12 11 10 10 9 8 8 7 7 6 6 6 6 6 6 7 7 7 8 8 8 9 9 10 10 11 11 11 12
Wind_Direction
6 5 5 1 352 342 333 318 300 288 280 266 249 242 240 237 235 235 236 235 231 229 229 230 230 231 230 233 236 237 238 240 242 243 245 249 253 256 258 261 263 265 267
11 11 12 12 8 359 348 335 324 308 297 282 255 242 239 236 235 234 233 231 230 227 227 228 229 229 229 232 235 236 238 240 242 245 246 247 252 255 259 261 264 266 269
18 16 14 12 10 8 3 353 343 330 315 302 270 249 241 237 235 233 229 228 228 228 228 227 227 229 230 232 234 235 236 239 241 244 245 246 251 254 257 260 265 267 269
20 20 18 16 14 12 11 5 357 354 344 321 286 256 244 237 234 232 228 228 228 228 228 228 229 229 229 233 236 235 238 241 243 243 245 247 249 252 256 261 263 265 269
24 23 22 22 20 19 17 14 8 1 353 343 331 291 267 250 235 233 230 227 228 228 227 227 228 229 231 234 235 236 238 241 242 243 244 246 249 252 256 259 261 265 270
24 24 24 23 22 21 20 21 20 16 7 360 346 321 308 273 237 229 226 230 229 228 227 225 225 225 228 228 231 232 236 239 241 241 244 245 247 248 252 258 261 263 266
26 26 25 24 24 24 22 22 23 22 20 15 8 357 340 300 254 229 223 222 218 218 217 219 220 221 224 226 228 229 231 234 237 240 241 243 246 248 250 252 254 257 262
26 26 26 26 26 26 25 25 25 25 26 27 25 21 26 40 39 213 209 204 206 206 209 213 214 217 219 223 225 223 224 227 230 233 236 240 242 243 245 249 250 253 259
25 25 26 26 27 28 28 28 27 26 26 25 23 25 32 39 50 100 171 186 188 189 195 206 212 213 217 220 222 221 222 225 229 232 236 237 239 242 246 248 251 255 262
25 25 26 26 27 28 29 30 30 29 28 27 28 30 34 38 47 83 130 154 168 178 191 198 198 200 200 203 206 209 212 217 221 226 228 230 230 233 239 245 251 258 264
24 24 24 25 26 27 29 30 31 31 31 31 32 35 38 41 49 72 101 116 136 147 157 169 180 183 186 192 199 202 207 211 211 214 214 218 222 226 231 240 248 255 264
23 24 24 24 25 27 28 29 30 31 32 33 35 38 42 44 49 59 78 95 112 127 140 146 154 167 178 186 187 188 192 195 197 203 209 210 211 216 223 231 240 249 263
23 24 24 25 26 27 28 29 30 32 33 34 37 41 44 48 53 61 70 87 102 111 128 136 147 160 171 174 174 178 183 187 193 197 197 199 205 211 218 229 238 246 262
21 22 23 24 26 27 29 30 31 32 34 35 39 42 45 49 53 59 64 72 86 101 114 128 142 151 159 163 167 173 178 181 182 186 191 197 202 209 220 228 238 248 262
21 22 22 23 24 26 28 30 32 33 35 37 40 43 46 50 54 56 59 63 72 85 100 119 129 135 141 153 165 170 174 177 180 182 186 192 201 211 220 230 241 249 261
19 20 21 22 23 25 27 29 31 32 34 36 39 42 45 49 53 57 60 64 69 73 84 97 108 118 129 140 150 158 161 165 170 175 181 188 198 208 212 218 225 240 260
13 15 17 19 21 23 25 27 28 30 33 35 38 40 43 46 49 53 57 62 66 71 77 85 95 106 120 132 141 149 156 161 168 173 177 183 188 190 192 201 217 238 264
6 9 12 15 17 20 23 25 28 30 32 34 37 39 42 44 46 50 54 59 64 69 77 84 91 100 113 124 133 142 149 155 161 168 175 178 179 181 188 199 213 236 275
357 1 4 8 12 15 19 22 26 29 31 34 36 38 40 43 46 50 54 59 63 69 77 85 91 97 104 112 121 131 143 151 154 157 163 167 173 183 193 202 211 231 284
346 350 354 358 3 7 10 14 18 22 25 28 31 34 37 40 44 47 51 55 60 65 71 79 86 92 99 106 113 120 133 144 149 156 163 172 183 192 197 202 216 250 288
331 336 341 344 350 355 359 3 8 12 16 20 24 28 31 34 38 42 46 50 54 59 64 70 75 81 87 95 105 115 130 148 160 168 180 189 196 203 209 223 254 281 297
317 322 327 331 335 340 344 348 353 359 4 8 13 17 21 24 29 33 37 41 45 50 55 62 69 76 80 84 92 106 126 150 175 191 207 221 231 235 243 254 268 283 293
305 308 311 315 319 324 328 332 335 339 345 350 356 1 5 9 12 17 22 26 30 34 41 47 51 54 57 66 94 139 172 207 228 237 244 248 250 251 256 262 271 282 291
296 299 301 302 303 307 311 315 318 321 324 326 330 334 339 344 348 350 352 355 359 0 2 2 357 345 328 303 279 266 265 265 265 264 263 264 265 264 267 272 279 285 291
287 290 292 294 295 296 298 300 303 305 307 308 308 309 311 314 317 319 320 319 317 314 310 303 296 291 287 283 279 276 274 272 270 270 270 270 269 270 273 277 281 286 289
279 281 283 285 287 288 289 291 293 294 295 295 295 295 294 295 296 295 295 295 294 292 289 286 284 282 279 278 278 278 277 275 275 273 271 271 272 274 276 278 281 284 288
Height
5770 5766 5763 5760 5757 5755 5753 5752 5751 5751 5751 5751 5752 5754 5757 5760 5763 5767 5771 5775 5779 5784 5789 5794 5799 5804 5809 5814 5818 5823 5827 5831 5834 5837 5840 5843 5845 5847 5848 5849 5851 5851 5851
5771 5767 5764 5760 5758 5755 5753 5751 5750 5749 5749 5749 5749 5751 5753 5755 5758 5761 5765 5769 5773 5777 5782 5787 5792 5797 5802 5807 5811 5815 5819 5823 5826 5829 5832 5836 5838 5840 5841 5843 5844 5845 5845
5773 5769 5765 5762 5759 5756 5753 5751 5750 5749 5748 5747 5747 5748 5749 5751 5753 5756 5760 5764 5767 5772 5776 5780 5785 5790 5795 5800 5804 5808 5812 5815 5819 5822 5825 5828 5831 5833 5834 5836 5837 5838 5838
5775 5771 5767 5764 5760 5757 5754 5752 5750 5749 5748 5747 5746 5746 5747 5748 5750 5752 5756 5759 5762 5767 5771 5775 5779 5784 5789 5794 5798 5802 5805 5809 5812 5816 5819 5821 5824 5826 5828 5829 5831 5831 5832
5778 5774 5770 5766 5762 5758 5755 5753 5751 5749 5747 5746 5746 5745 5745 5746 5747 5750 5752 5755 5758 5762 5766 5770 5775 5779 5784 5788 5792 5796 5799 5803 5806 5809 5812 5815 5817 5820 5821 5823 5824 5825 5826
5782 5777 5772 5768 5764 5760 5757 5754 5751 5749 5748 5746 5746 5745 5745 5745 5745 5747 5750 5752 5754 5758 5762 5766 5770 5774 5778 5782 5786 5790 5793 5797 5800 5803 5806 5809 5811 5813 5815 5817 5818 5819 5820
5785 5780 5775 5771 5767 5763 5759 5756 5753 5751 5749 5747 5746 5745 5744 5744 5744 5746 5748 5750 5752 5754 5758 5762 5766 5769 5773 5777 5781 5785 5788 5792 5795 5798 5801 5803 5806 5808 5810 5811 5813 5814 5815
5789 5784 5779 5774 5770 5766 5762 5758 5755 5753 5750 5748 5746 5745 5744 5744 5744 5745 5746 5748 5750 5752 5755 5759 5762 5766 5770 5774 5777 5781 5784 5787 5790 5794 5797 5799 5801 5803 5805 5807 5808 5809 5810
5792 5787 5783 5778 5773 5769 5765 5761 5758 5755 5752 5750 5748 5746 5745 5745 5744 5745 5746 5748 5750 5751 5754 5757 5760 5763 5767 5771 5774 5777 5781 5784 5787 5790 5793 5795 5797 5799 5801 5803 5804 5805 5806
5796 5791 5787 5782 5777 5773 5769 5765 5761 5758 5755 5752 5750 5748 5747 5746 5745 5746 5747 5748 5749 5751 5753 5756 5759 5762 5765 5768 5772 5775 5778 5781 5784 5787 5789 5792 5794 5796 5798 5800 5801 5802 5803
5800 5795 5790 5786 5781 5777 5773 5769 5765 5761 5758 5755 5752 5750 5749 5748 5747 5747 5747 5748 5750 5751 5753 5756 5758 5761 5764 5767 5770 5773 5776 5779 5782 5784 5787 5789 5792 5794 5795 5797 5798 5800 5801
5804 5799 5795 5790 5786 5781 5777 5773 5769 5765 5762 5759 5756 5753 5751 5750 5749 5748 5749 5750 5751 5753 5754 5756 5759 5761 5764 5767 5769 5772 5775 5778 5781 5783 5786 5788 5790 5792 5794 5795 5796 5797 5798
5808 5803 5799 5794 5790 5785 5781 5777 5773 5769 5766 5763 5760 5757 5755 5753 5752 5751 5752 5752 5753 5755 5756 5758 5760 5762 5764 5767 5769 5772 5775 5777 5779 5782 5784 5786 5788 5790 5792 5793 5794 5795 5796
5811 5807 5803 5798 5794 5790 5786 5782 5778 5774 5770 5767 5764 5762 5759 5757 5756 5755 5755 5755 5756 5757 5758 5759 5761 5763 5765 5767 5769 5772 5774 5777 5779 5781 5783 5785 5787 5789 5790 5792 5793 5793 5794
5815 5811 5807 5802 5798 5794 5790 5786 5782 5779 5775 5772 5769 5767 5764 5762 5761 5760 5759 5759 5759 5759 5760 5761 5763 5764 5766 5768 5770 5772 5774 5776 5778 5781 5782 5784 5786 5788 5789 5790 5791 5791 5792
5818 5814 5810 5806 5802 5798 5794 5791 5787 5783 5780 5777 5774 5771 5769 5767 5766 5764 5763 5763 5763 5763 5763 5764 5765 5766 5767 5769 5771 5772 5774 5777 5778 5780 5782 5784 5785 5786 5788 5788 5789 5790 5790
5821 5817 5813 5809 5805 5802 5798 5795 5791 5788 5785 5782 5779 5776 5774 5772 5770 5769 5768 5767 5766 5766 5766 5766 5767 5768 5769 5770 5772 5774 5775 5777 5779 5780 5782 5783 5784 5786 5787 5787 5788 5789 5789
5822 5819 5815 5812 5808 5805 5801 5798 5795 5792 5789 5786 5783 5781 5778 5776 5775 5773 5772 5771 5770 5769 5769 5770 5770 5771 5772 5773 5774 5775 5776 5778 5779 5781 5782 5783 5784 5785 5786 5787 5787 5788 5788
5823 5820 5817 5814 5811 5807 5804 5801 5798 5795 5793 5790 5787 5785 5783 5781 5779 5777 5776 5775 5774 5773 5773 5773 5773 5773 5774 5775 5776 5777 5778 5779 5780 5781 5782 5783 5784 5785 5786 5786 5787 5787 5787
5823 5820 5817 5814 5812 5809 5806 5803 5801 5798 5796 5793 5791 5788 5786 5784 5782 5781 5779 5778 5777 5777 5776 5776 5776 5776 5776 5777 5777 5778 5779 5780 5781 5782 5782 5783 5784 5785 5785 5786 5786 5787 5787
5822 5819 5817 5814 5812 5809 5807 5805 5802 5800 5798 5795 5793 5791 5789 5787 5785 5784 5783 5781 5780 5780 5779 5779 5778 5778 5778 5779 5779 5780 5780 5781 5781 5782 5783 5783 5784 5784 5785 5785 5786 5786 5786
5820 5818 5816 5813 5811 5809 5807 5805 5803 5801 5799 5797 5795 5793 5791 5789 5788 5786 5785 5784 5783 5782 5781 5781 5780 5780 5780 5780 5780 5780 5781 5781 5782 5782 5783 5783 5783 5784 5784 5785 5785 5785 5784
5817 5815 5813 5812 5810 5808 5806 5804 5802 5800 5799 5797 5795 5793 5792 5790 5789 5788 5786 5785 5784 5783 5783 5782 5782 5781 5781 5781 5781 5781 5781 5782 5782 5782 5782 5782 5783 5783 5783 5783 5783 5783 5783
5813 5811 5810 5808 5807 5805 5804 5802 5801 5799 5798 5796 5795 5793 5792 5790 5789 5788 5787 5786 5785 5784 5783 5782 5782 5782 5781 5781 5781 5781 5781 5781 5781 5781 5781 5781 5781 5781 5781 5781 5781 5781 5781
5807 5807 5805 5804 5803 5802 5800 5799 5798 5797 5795 5794 5793 5792 5790 5789 5788 5787 5786 5785 5784 5783 5783 5782 5781 5781 5781 5780 5780 5780 5780 5780 5779 5779 5779 5779 5779 5779 5779 5779 5779 5778 5778
5801 5801 5800 5799 5798 5797 5796 5795 5794 5793 5792 5791 5790 5789 5788 5787 5786 5785 5784 5783 5782 5782 5781 5780 5780 5779 5779 5779 5778 5778 5778 5777 5777 5777 5777 5777 5777 5777 5776 5776 5776 5775 5775